| Date | Time | Temp. (oF) | Dew Point (oF) | Rel. Hum. (%) | Press. (in.) | Wind Dir. (deg.) | Wind Speed (mph) | Hourly Rainfall (i n.) |
|
|---|---|---|---|---|---|---|---|---|---|
| 1 | 10/21 | 24:00 | 49 | 45 | 89 | 30.33 | 290 | 0 | 0.00 |
| 2 | 10/20 | 23:00 | 50 | 46 | 88 | 30.33 | 290 | 0 | 0.00 |
| 3 | 10/20 | 22:00 | 50 | 45 | 86 | 30.33 | 290 | 0 | 0.00 |
| 4 | 10/20 | 21:00 | 51 | 47 | 88 | 30.33 | 290 | 0 | 0.00 |
| 5 | 10/20 | 20:00 | 52 | 47 | 84 | 30.33 | 290 | 0 | 0.00 |
| 6 | 10/20 | 19:00 | 53 | 49 | 88 | 30.32 | 290 | 0 | 0.00 |
| 7 | 10/20 | 18:00 | 54 | 50 | 87 | 30.33 | 290 | 0 | 0.00 |
| 8 | 10/20 | 17:00 | 55 | 50 | 86 | 30.33 | 290 | 1 | 0.00 |
| 9 | 10/20 | 16:00 | 55 | 51 | 87 | 30.33 | 270 | 1 | 0.00 |
| 10 | 10/20 | 15:00 | 55 | 49 | 83 | 30.35 | 310 | 2 | 0.00 |
| 11 | 10/20 | 14:00 | 55 | 50 | 86 | 30.35 | 270 | 2 | 0.00 |
| 12 | 10/20 | 13:00 | 55 | 52 | 91 | 30.35 | 310 | 4 | 0.00 |
| 13 | 10/20 | 12:00 | 53 | 51 | 94 | 30.38 | 270 | 4 | 0.03 |
| 14 | 10/20 | 11:00 | 52 | 50 | 95 | 30.40 | 290 | 1 | 0.06 |
| 15 | 10/20 | 10:00 | 52 | 50 | 95 | 30.41 | 130 | 4 | 0.04 |
| 16 | 10/20 | 09:00 | 52 | 50 | 95 | 30.40 | 130 | 0 | 0.01 |
| 17 | 10/20 | 08:00 | 51 | 49 | 95 | 30.39 | 130 | 0 | 0.00 |
| 18 | 10/20 | 07:00 | 51 | 49 | 95 | 30.40 | 130 | 0 | 0.03 |
| 19 | 10/20 | 06:00 | 51 | 49 | 94 | 30.40 | 130 | 1 | 0.07 |
| 20 | 10/20 | 05:00 | 51 | 49 | 93 | 30.42 | 130 | 0 | 0.03 |
| 21 | 10/20 | 04:00 | 52 | 50 | 93 | 30.42 | 130 | 0 | 0.01 |
| 22 | 10/20 | 03:00 | 51 | 49 | 93 | 30.42 | 130 | 0 | 0.01 |
| 23 | 10/20 | 02:00 | 52 | 49 | 91 | 30.41 | 130 | 1 | 0.06 |
| 24 | 10/20 | 01:00 | 53 | 47 | 83 | 30.43 | 130 | 0 | 0.00 |